KG4AGD Weather Reports


time (UTC)temp
C
wind
direction
speed
KPH
gust
KPH
rain 1hr
cm
rain 24hr
cm
rain mn
cm
humidity
%
barometer
mb
20260506014239 20 187 17.7 17.7 0.00 0.00 0.00 71 1017.2
20260506013736 20 121 19.3 19.3 0.00 0.00 0.00 71 1017.2
20260506013234 20 172 22.5 22.5 0.00 0.00 0.00 70 1016.9
20260506012731 20 156 12.9 17.7 0.00 0.00 0.00 70 1016.9
20260506012229 20 166 8.0 22.5 0.00 0.00 0.00 69 1016.9
20260506011727 21 165 22.5 24.1 0.00 0.00 0.00 68 1016.9
20260506011224 21 172 12.9 22.5 0.00 0.00 0.00 68 1016.9
20260506010722 21 146 8.0 22.5 0.00 0.00 0.00 68 1016.5
20260506010220 21 187 11.3 20.9 0.00 0.00 0.00 67 1016.5
20260506005717 21 143 14.5 20.9 0.00 0.00 0.00 67 1016.5
20260506005215 21 159 9.7 20.9 0.00 0.00 0.00 66 1016.5
20260506004712 21 172 17.7 25.7 0.00 0.00 0.00 65 1016.2
20260506004210 21 182 9.7 20.9 0.00 0.00 0.00 65 1016.2
20260506003707 21 175 4.8 19.3 0.00 0.00 0.00 65 1016.2
20260506003205 22 170 11.3 19.3 0.00 0.00 0.00 64 1016.2
20260506002703 22 145 12.9 20.9 0.00 0.00 0.00 63 1016.2
20260506002201 22 144 16.1 17.7 0.00 0.00 0.00 63 1015.9
20260506001658 22 171 12.9 17.7 0.00 0.00 0.00 63 1015.9
20260506001156 22 165 16.1 16.1 0.00 0.00 0.00 62 1015.9
20260506000653 22 198 8.0 19.3 0.00 0.00 0.00 61 1015.9
20260506000151 22 172 17.7 17.7 0.00 0.00 0.00 61 1015.9
20260505235648 22 179 8.0 16.1 0.00 0.00 0.00 60 1015.5
20260505235146 23 179 14.5 17.7 0.00 0.00 0.00 59 1015.5
20260505234643 23 183 6.4 16.1 0.00 0.00 0.00 58 1015.5
20260505234141 23 183 11.3 27.4 0.00 0.00 0.00 57 1015.9
20260505233639 23 154 20.9 24.1 0.00 0.00 0.00 56 1015.5
20260505233137 23 183 22.5 22.5 0.00 0.00 0.00 56 1015.5
20260505232635 23 155 19.3 19.3 0.00 0.00 0.00 55 1015.5
20260505232133 24 153 16.1 17.7 0.00 0.00 0.00 55 1015.5
20260505231631 24 206 11.3 14.5 0.00 0.00 0.00 55 1015.5
20260505231128 24 177 9.7 22.5 0.00 0.00 0.00 54 1015.5
20260505230626 25 207 14.5 16.1 0.00 0.00 0.00 54 1015.5
20260505230124 25 162 11.3 20.9 0.00 0.00 0.00 54 1015.5
20260505225611 25 166 9.7 19.3 0.00 0.00 0.00 53 1015.5
20260505225109 25 173 16.1 24.1 0.00 0.00 0.00 53 1015.5
20260505224607 25 119 12.9 17.7 0.00 0.00 0.00 52 1015.5
20260505224105 25 134 12.9 19.3 0.00 0.00 0.00 52 1015.9
20260505223602 25 175 12.9 16.1 0.00 0.00 0.00 52 1015.5
20260505223100 25 213 11.3 19.3 0.00 0.00 0.00 52 1015.9
20260505222557 25 166 14.5 19.3 0.00 0.00 0.00 51 1015.9
20260505222055 25 164 11.3 17.7 0.00 0.00 0.00 52 1015.9
20260505221553 26 162 14.5 17.7 0.00 0.00 0.00 50 1015.9
20260505221050 26 169 12.9 19.3 0.00 0.00 0.00 50 1015.9
20260505220548 26 226 11.3 20.9 0.00 0.00 0.00 51 1015.9
20260505220046 26 177 8.0 11.3 0.00 0.00 0.00 52 1015.9
20260505215543 26 193 17.7 22.5 0.00 0.00 0.00 51 1015.9
20260505215041 26 228 12.9 20.9 0.00 0.00 0.00 50 1015.9
20260505214539 26 184 11.3 24.1 0.00 0.00 0.00 50 1015.9
20260505214036 26 171 14.5 20.9 0.00 0.00 0.00 50 1015.9
20260505213534 27 210 16.1 17.7 0.00 0.00 0.00 49 1015.9
20260505213032 26 171 12.9 19.3 0.00 0.00 0.00 49 1015.9
20260505212530 27 165 12.9 19.3 0.00 0.00 0.00 49 1015.9
20260505212027 26 140 19.3 29.0 0.00 0.00 0.00 49 1015.9
20260505211525 27 177 12.9 24.1 0.00 0.00 0.00 49 1015.9
20260505211022 27 151 16.1 20.9 0.00 0.00 0.00 48 1015.9
20260505210520 27 179 11.3 20.9 0.00 0.00 0.00 47 1015.9
20260505205916 27 165 19.3 20.9 0.00 0.00 0.00 47 1015.9
20260505205414 27 236 6.4 17.7 0.00 0.00 0.00 47 1015.9
20260505204911 27 164 14.5 17.7 0.00 0.00 0.00 47 1015.9
20260505204409 27 214 9.7 12.9 0.00 0.00 0.00 47 1015.9
20260505203907 27 226 20.9 20.9 0.00 0.00 0.00 48 1015.9
20260505203404 27 228 14.5 14.5 0.00 0.00 0.00 47 1015.9
20260505202902 27 168 4.8 14.5 0.00 0.00 0.00 50 1015.9
20260505202400 27 188 11.3 12.9 0.00 0.00 0.00 49 1015.9
20260505201858 26 205 22.5 22.5 0.00 0.00 0.00 50 1015.9
20260505201355 26 169 9.7 17.7 0.00 0.00 0.00 50 1015.9
20260505200854 27 169 17.7 19.3 0.00 0.00 0.00 48 1015.9
20260505200351 27 183 11.3 14.5 0.00 0.00 0.00 49 1016.2
20260505195849 27 159 16.1 16.1 0.00 0.00 0.00 50 1016.2
20260505195347 26 173 24.1 24.1 0.00 0.00 0.00 50 1016.5
20260505194845 27 179 11.3 16.1 0.00 0.00 0.00 47 1016.5
20260505194343 27 161 9.7 14.5 0.00 0.00 0.00 49 1016.5
20260505193840 27 167 11.3 14.5 0.00 0.00 0.00 47 1016.5
20260505193338 26 217 16.1 16.1 0.00 0.00 0.00 48 1016.5
20260505192836 26 246 14.5 16.1 0.00 0.00 0.00 50 1016.9
20260505192334 26 166 14.5 17.7 0.00 0.00 0.00 48 1016.9
20260505191831 27 140 19.3 22.5 0.00 0.00 0.00 46 1016.9
20260505191329 27 251 16.1 16.1 0.00 0.00 0.00 48 1016.9
20260505190827 27 207 17.7 17.7 0.00 0.00 0.00 47 1017.2
20260505190324 27 187 6.4 9.7 0.00 0.00 0.00 49 1017.2
20260505185822 27 208 9.7 14.5 0.00 0.00 0.00 48 1017.2
20260505185320 27 196 11.3 22.5 0.00 0.00 0.00 48 1017.2
20260505184818 27 217 11.3 12.9 0.00 0.00 0.00 48 1017.2
20260505184315 27 174 14.5 16.1 0.00 0.00 0.00 47 1017.2
20260505183813 27 163 12.9 12.9 0.00 0.00 0.00 49 1017.6
20260505183311 27 169 16.1 22.5 0.00 0.00 0.00 48 1017.6
20260505182809 26 172 14.5 17.7 0.00 0.00 0.00 48 1017.6
20260505182306 27 175 9.7 14.5 0.00 0.00 0.00 48 1017.6
20260505181804 27 165 17.7 17.7 0.00 0.00 0.00 49 1017.6
20260505181302 26 241 11.3 12.9 0.00 0.00 0.00 50 1017.6
20260505180800 26 138 9.7 11.3 0.00 0.00 0.00 51 1017.6
20260505180258 27 206 12.9 12.9 0.00 0.00 0.00 50 1017.9
20260505175755 27 192 16.1 17.7 0.00 0.00 0.00 49 1017.9
20260505175253 27 157 9.7 11.3 0.00 0.00 0.00 50 1017.9
20260505174751 27 248 4.8 8.0 0.00 0.00 0.00 50 1017.9
20260505174249 27 227 20.9 20.9 0.00 0.00 0.00 50 1017.9
20260505173747 27 238 11.3 17.7 0.00 0.00 0.00 50 1017.9
20260505173245 27 222 11.3 25.7 0.00 0.00 0.00 50 1017.9
20260505172742 26 146 14.5 17.7 0.00 0.00 0.00 49 1017.9
20260505172240 26 173 11.3 11.3 0.00 0.00 0.00 52 1017.9
20260505171738 27 189 4.8 4.8 0.00 0.00 0.00 53 1017.9
20260505171236 26 170 6.4 6.4 0.00 0.00 0.00 51 1017.9
20260505170733 26 170 12.9 16.1 0.00 0.00 0.00 52 1018.2
20260505170231 26 157 11.3 20.9 0.00 0.00 0.00 52 1018.2
20260505165729 26 183 12.9 20.9 0.00 0.00 0.00 53 1018.2
20260505165227 26 175 9.7 19.3 0.00 0.00 0.00 53 1018.2
20260505164724 26 176 9.7 22.5 0.00 0.00 0.00 54 1018.2
20260505164222 26 184 1.6 17.7 0.00 0.00 0.00 53 1018.2
20260505163720 25 206 11.3 16.1 0.00 0.00 0.00 56 1018.2
20260505163218 25 228 14.5 20.9 0.00 0.00 0.00 56 1018.2
20260505162715 25 212 14.5 17.7 0.00 0.00 0.00 56 1018.6
20260505162213 25 158 14.5 19.3 0.00 0.00 0.00 58 1018.2
20260505161711 25 156 6.4 19.3 0.00 0.00 0.00 55 1018.6
20260505161208 25 232 16.1 17.7 0.00 0.00 0.00 55 1018.6
20260505160706 25 211 12.9 17.7 0.00 0.00 0.00 55 1018.6
20260505160204 25 271 14.5 17.7 0.00 0.00 0.00 56 1018.9
20260505153150 24 153 4.8 12.9 0.00 0.00 0.00 59 1018.9
20260505152648 24 146 9.7 16.1 0.00 0.00 0.00 61 1018.9
20260505152145 24 175 11.3 17.7 0.00 0.00 0.00 58 1018.9
20260505151643 24 201 8.0 16.1 0.00 0.00 0.00 60 1019.3
20260505151141 23 181 16.1 16.1 0.00 0.00 0.00 62 1019.3
20260505150638 23 181 11.3 12.9 0.00 0.00 0.00 62 1019.3
20260505150136 24 166 6.4 16.1 0.00 0.00 0.00 64 1018.9
20260505140611 21 166 12.9 17.7 0.00 0.00 0.00 71 1019.3
20260505140109 21 205 11.3 14.5 0.00 0.00 0.00 69 1019.3
20260505125038 19 230 9.7 9.7 0.00 0.00 0.00 74 1018.9
20260505124535 18 205 6.4 11.3 0.00 0.00 0.00 76 1018.9
20260505124033 18 137 6.4 11.3 0.00 0.00 0.00 75 1018.9
20260505123530 18 218 11.3 11.3 0.00 0.00 0.00 75 1018.9
20260505123028 18 233 12.9 12.9 0.00 0.00 0.00 76 1018.9
20260505122526 18 252 4.8 9.7 0.00 0.00 0.00 76 1018.9
20260505122024 17 242 8.0 12.9 0.00 0.00 0.00 77 1018.9
20260505121522 17 187 3.2 8.0 0.00 0.00 0.00 78 1018.9
20260505121020 16 169 6.4 8.0 0.00 0.00 0.00 79 1018.9
20260505120517 16 144 6.4 8.0 0.00 0.00 0.00 79 1018.9
20260505120015 16 178 3.2 9.7 0.00 0.00 0.00 82 1018.9
20260505115513 16 189 9.7 9.7 0.00 0.00 0.00 81 1018.9
20260505115011 15 213 3.2 6.4 0.00 0.00 0.00 83 1018.9
20260505114508 15 177 9.7 9.7 0.00 0.00 0.00 82 1018.9
20260505114005 15 188 4.8 4.8 0.00 0.00 0.00 83 1018.9
20260505113502 15 179 4.8 8.0 0.00 0.00 0.00 84 1018.6
20260505112957 15 207 6.4 6.4 0.00 0.00 0.00 84 1018.6
20260505112455 14 214 8.0 9.7 0.00 0.00 0.00 84 1018.6
20260505111953 14 204 0.0 3.2 0.00 0.00 0.00 85 1018.6
20260505111450 14 201 0.0 8.0 0.00 0.00 0.00 86 1018.6
20260505110948 13 202 1.6 4.8 0.00 0.00 0.00 87 1018.6
20260505110446 13 164 3.2 4.8 0.00 0.00 0.00 88 1018.6
20260505101926 12 185 0.0 3.2 0.00 0.00 0.00 91 1017.9
20260505101424 12 181 3.2 3.2 0.00 0.00 0.00 90 1017.9
20260505100921 12 164 0.0 3.2 0.00 0.00 0.00 90 1017.9
20260505100418 12 168 4.8 4.8 0.00 0.00 0.00 89 1017.9
20260505095915 12 202 0.0 3.2 0.00 0.00 0.00 89 1017.9
20260505095412 12 184 1.6 3.2 0.00 0.00 0.00 88 1017.6
20260505094910 12 202 4.8 4.8 0.00 0.00 0.00 88 1017.6
20260505094408 12 178 4.8 4.8 0.00 0.00 0.00 87 1017.6
20260505093905 12 214 3.2 3.2 0.00 0.00 0.00 87 1017.6
20260505093403 13 175 1.6 6.4 0.00 0.00 0.00 87 1017.6
20260505092901 13 183 0.0 4.8 0.00 0.00 0.00 86 1017.6
20260505092358 13 179 4.8 4.8 0.00 0.00 0.00 86 1017.6
20260505091856 13 179 6.4 6.4 0.00 0.00 0.00 86 1017.6
20260505091354 13 168 3.2 9.7 0.00 0.00 0.00 85 1017.6
20260505090851 13 204 4.8 6.4 0.00 0.00 0.00 85 1017.6
20260505090349 13 177 4.8 9.7 0.00 0.00 0.00 85 1017.6
20260505085847 13 213 4.8 8.0 0.00 0.00 0.00 84 1017.2
20260505085345 13 205 9.7 9.7 0.00 0.00 0.00 84 1017.2
20260505084842 13 222 6.4 9.7 0.00 0.00 0.00 84 1017.2
20260505084340 13 175 6.4 6.4 0.00 0.00 0.00 84 1017.2
20260505083838 13 192 6.4 6.4 0.00 0.00 0.00 84 1017.2
20260505083336 13 169 4.8 6.4 0.00 0.00 0.00 83 1017.2
20260505082834 13 205 4.8 11.3 0.00 0.00 0.00 83 1017.2
20260505082332 13 209 6.4 6.4 0.00 0.00 0.00 83 1017.2
20260505081829 13 168 4.8 8.0 0.00 0.00 0.00 83 1017.2
20260505081327 13 178 6.4 11.3 0.00 0.00 0.00 83 1017.2
20260505080825 14 221 4.8 6.4 0.00 0.00 0.00 82 1017.2
20260505080322 14 187 3.2 8.0 0.00 0.00 0.00 82 1017.2
20260505075820 14 157 9.7 9.7 0.00 0.00 0.00 82 1017.2
20260505075318 14 174 3.2 9.7 0.00 0.00 0.00 82 1017.2
20260505074815 14 188 6.4 8.0 0.00 0.00 0.00 82 1017.2
20260505074313 14 179 6.4 6.4 0.00 0.00 0.00 82 1017.2
20260505073811 14 177 6.4 6.4 0.00 0.00 0.00 82 1017.2
20260505073308 14 180 4.8 6.4 0.00 0.00 0.00 82 1017.2
20260505072806 14 201 11.3 11.3 0.00 0.00 0.00 82 1017.2
20260505072305 14 171 6.4 6.4 0.00 0.00 0.00 82 1017.2
20260505071801 14 193 3.2 4.8 0.00 0.00 0.00 82 1016.9
20260505071259 14 183 3.2 3.2 0.00 0.00 0.00 82 1016.9
20260505070757 14 165 4.8 6.4 0.00 0.00 0.00 81 1016.9
20260505070255 14 171 1.6 3.2 0.00 0.00 0.00 81 1016.9
20260505065753 14 206 3.2 4.8 0.00 0.00 0.00 81 1017.2
20260505065250 14 168 3.2 4.8 0.00 0.00 0.00 81 1017.2
20260505064748 15 162 8.0 8.0 0.00 0.00 0.00 80 1016.9
20260505064246 15 152 6.4 6.4 0.00 0.00 0.00 80 1016.9
20260505063744 15 151 4.8 4.8 0.00 0.00 0.00 80 1017.2
20260505063242 15 196 3.2 3.2 0.00 0.00 0.00 80 1016.9
20260505062739 15 162 4.8 4.8 0.00 0.00 0.00 80 1017.2
20260505062237 15 206 4.8 4.8 0.00 0.00 0.00 79 1016.9
20260505061734 15 165 3.2 3.2 0.00 0.00 0.00 79 1016.9
20260505061232 15 159 9.7 9.7 0.00 0.00 0.00 79 1017.2
20260505060730 15 168 6.4 9.7 0.00 0.00 0.00 79 1017.2
20260505060227 15 169 9.7 9.7 0.00 0.00 0.00 78 1017.2
20260505055725 15 187 6.4 9.7 0.00 0.00 0.00 78 1017.2
20260505055223 15 194 1.6 8.0 0.00 0.00 0.00 78 1017.2
20260505054720 15 153 3.2 11.3 0.00 0.00 0.00 77 1017.2
20260505054218 15 156 4.8 11.3 0.00 0.00 0.00 77 1017.2
20260505053716 15 186 3.2 9.7 0.00 0.00 0.00 77 1017.2
20260505053214 15 206 11.3 11.3 0.00 0.00 0.00 77 1017.2
20260505052711 15 195 3.2 8.0 0.00 0.00 0.00 76 1017.2
20260505052209 15 196 4.8 12.9 0.00 0.00 0.00 76 1017.2
20260505051707 16 187 8.0 12.9 0.00 0.00 0.00 75 1017.2
20260505051204 16 200 4.8 12.9 0.00 0.00 0.00 75 1017.6
20260505050701 16 171 12.9 12.9 0.00 0.00 0.00 74 1017.6
20260505050159 16 180 9.7 11.3 0.00 0.00 0.00 74 1017.6
20260505041638 17 174 6.4 16.1 0.00 0.00 0.00 72 1017.6
20260505041136 17 177 14.5 16.1 0.00 0.00 0.00 71 1017.6
20260505040634 17 198 8.0 16.1 0.00 0.00 0.00 71 1017.6
20260505040131 17 168 4.8 12.9 0.00 0.00 0.00 71 1017.6
20260505035629 17 176 12.9 14.5 0.00 0.00 0.00 70 1017.6
20260505035127 17 166 11.3 12.9 0.00 0.00 0.00 70 1017.6
20260505034625 17 206 9.7 14.5 0.00 0.00 0.00 70 1017.6
20260505034122 17 215 12.9 19.3 0.00 0.00 0.00 70 1017.6
20260505033620 17 192 9.7 17.7 0.00 0.00 0.00 70 1017.2
20260505033117 17 182 12.9 14.5 0.00 0.00 0.00 70 1017.2
20260505032615 17 189 6.4 17.7 0.00 0.00 0.00 69 1017.2
20260505032112 17 201 9.7 16.1 0.00 0.00 0.00 69 1017.2
20260505031610 17 184 12.9 19.3 0.00 0.00 0.00 69 1017.2
20260505031107 17 160 16.1 16.1 0.00 0.00 0.00 69 1017.2
20260505030605 17 170 11.3 14.5 0.00 0.00 0.00 68 1017.2
20260505025559 17 202 11.3 14.5 0.00 0.00 0.00 68 1017.2
20260505025056 18 203 14.5 16.1 0.00 0.00 0.00 67 1017.2
20260505024553 18 201 9.7 16.1 0.00 0.00 0.00 67 1017.2
20260505024051 18 164 9.7 17.7 0.00 0.00 0.00 67 1017.2
20260505023549 18 171 14.5 20.9 0.00 0.00 0.00 67 1017.2
20260505023046 18 153 14.5 16.1 0.00 0.00 0.00 66 1017.2
20260505022544 18 131 9.7 16.1 0.00 0.00 0.00 66 1017.2
20260505022042 18 195 16.1 22.5 0.00 0.00 0.00 66 1017.2
20260505021540 18 170 9.7 16.1 0.00 0.00 0.00 66 1017.2
20260505021038 18 168 11.3 14.5 0.00 0.00 0.00 66 1017.2
20260505020535 18 187 14.5 16.1 0.00 0.00 0.00 66 1017.2
20260505020033 18 179 16.1 16.1 0.00 0.00 0.00 65 1017.2
20260505015531 18 188 4.8 16.1 0.00 0.00 0.00 65 1016.9
20260505015029 18 185 14.5 17.7 0.00 0.00 0.00 65 1016.9